DECAYED
Showing default

TIANZHI 1, 43710 (Decayed)

Orbit data source: Space-Track

TIANZHI 1, 43710 was a payload satellite owned by Inst. Software (CN) in LEO that was launched on Mon, 19 Nov 2018 UTC via a CHANG ZHENG 2D launch vehicle from the Jiuquan Satellite Launch Center, China (JSC). Payload-class satellites include a variety of spacecraft equipped with specific instruments for various scientific and technological missions. These include communications satellites like Starlink; space stations such as the ISS; scientific satellites like the Hubble; Earth observation satellites from companies like Planet Labs, Umbra, and HawkEye 360; GPS; miniature CubeSats for education and research; and military/defense satellites.

Not visible in the next 10 days
Identifier
43710, 2018-094A
Orbit
Decayed
Country
Flag of CNCN / PRC
Related business
Manufacturer
IMI/CAS
Mission
Decayed Civil Communications
Bus & Motor
TZ-1, Unknown motor
Mass
27 kg wet, 27 kg dry
Launch date (UTC)
2018-11-19 (7 years ago)
Launch vehicle
CHANG ZHENG 2D
Launch site
Jiuquan Satellite Launch Center, China (JSC)
Object type
Payload
Rocket body
Debris
Shape & HBR
Box + 2 Pan, 0.3 m
Radar Cross Section
0.120 m², Medium (>0.1 m² and < 1m²)

Expand to show TLE details & history
Last TLE update: 2 weeks ago

TLE from 2 weeks ago
0 TIANZHI 1
1 43710U 18094A   25278.16685785  .10078755  25457-5  15580-3 0  9990
2 43710  97.3073 321.1564 0011303 257.6301 102.3738 16.47872554384895
Epoch: 2025-10-05T04:00Z
TLE epoch observation values (Epoch: 2025-10-05T04:00:16.518Z)
Latitude
Longitude
-113.00078°
Altitude
149.797 km
Speed
7.815 km/s
True Right ascension
21h 24m 37s
True Declination
0° 00' 00"
Sunlit
Object was in full shadow at epoch
Visualization orbit readout
Latitude
Unknown
Longitude
Unknown
Altitude
Unknown
Speed
Unknown
Apparent Right ascension
Unknown
Apparent Declination
Unknown
Sunlit
N/A
Visualization observer readout
Local Sidereal Time
22:04:44
Azimuth
Unknown
Elevation
Unknown
Doppler factor
Unknown
Orbital elements
Apogee altitude
149.106 km
Perigee altitude
134.368 km
Semi-major axis
6,519.874 km
Eccentricity
0.00113
Inclination
97.3073°
RAAN
321.1564°
Arg. of periapsis
257.6301°
True anomaly
102.50028°
Mean anomaly
102.3738°
Eccentric anomaly
102.43704°
Mean motion
4.12272 °/min
Orbital period
87.32 mins
BSTAR
0.0001558
Loading maneuver chart data...
Computing Atmospheric mass density...
Loading historical data...
Loading historical data...
Loading historical data...
Loading historical data...
Loading historical data...
Loading historical data...
Loading historical data...

Documentation

Showing up to 5 results
|